Temp
-8 -8 -8 -7 -6 -6 -6 -6 -6 -6 -6 -6 -6 -6 -7 -7 -7 -7 -7 -7 -7 -7 -7 -7 -7 -5 -5 -5 -4 -3 -3 -3 -2 -3 -3 -2 -2 -1 -1 -1 -0 -0 -2 -3 -2 -2 -1 1 1 1 3 4 3 4
-8 -8 -8 -7 -7 -7 -7 -7 -7 -7 -6 -6 -7 -7 -7 -7 -7 -7 -7 -7 -7 -8 -7 -7 -6 -5 -5 -4 -5 -4 -3 -3 -3 -3 -3 -2 -2 -2 -1 -2 -1 -1 -0 -1 -1 -0 1 1 2 2 2 2 2 2
-9 -8 -8 -7 -7 -7 -7 -7 -7 -7 -7 -6 -7 -7 -7 -7 -8 -8 -7 -7 -8 -8 -8 -7 -7 -6 -5 -4 -5 -4 -4 -3 -3 -2 -2 -2 -2 -2 -1 -1 -0 -2 -1 -1 -1 -0 1 1 1 0 0 0 0 0
-9 -8 -8 -7 -7 -7 -7 -7 -8 -7 -7 -7 -7 -7 -7 -7 -7 -7 -7 -7 -8 -8 -8 -7 -7 -7 -7 -6 -4 -4 -4 -3 -3 -3 -3 -3 -2 -2 -2 -1 -1 -1 -2 -1 -1 -1 -1 -0 0 -1 -1 -1 -1 -1
-10 -9 -8 -8 -7 -7 -7 -7 -7 -8 -7 -7 -7 -7 -7 -7 -7 -7 -7 -7 -8 -8 -8 -7 -7 -7 -6 -6 -5 -5 -5 -5 -4 -4 -4 -3 -3 -3 -2 -2 -1 -1 -0 -0 0 1 0 0 -1 -1 -2 -2 -2 -2
-10 -9 -9 -8 -8 -7 -7 -7 -7 -7 -8 -7 -7 -8 -7 -7 -7 -7 -7 -7 -7 -7 -8 -8 -7 -7 -5 -6 -5 -5 -5 -4 -4 -3 -4 -3 -3 -3 -3 -2 -1 -0 -1 -1 -1 -1 -1 -2 -2 -2 -3 -3 -4 -4
-11 -10 -9 -9 -8 -8 -7 -7 -7 -7 -7 -7 -7 -7 -7 -7 -7 -7 -7 -7 -8 -8 -8 -8 -8 -7 -6 -7 -6 -5 -5 -4 -4 -4 -4 -4 -4 -3 -3 -3 -1 -1 -1 -2 -2 -2 -3 -3 -3 -4 -4 -6 -6 -6
-11 -11 -11 -11 -9 -9 -8 -8 -8 -7 -7 -7 -7 -7 -7 -7 -7 -8 -8 -7 -7 -7 -8 -8 -8 -7 -7 -7 -6 -6 -5 -5 -5 -4 -4 -4 -4 -4 -4 -2 -2 -2 -2 -2 -3 -3 -3 -3 -4 -5 -5 -6 -7 -7
-11 -11 -10 -11 -11 -9 -9 -8 -8 -8 -8 -8 -7 -8 -8 -8 -7 -8 -7 -8 -8 -8 -8 -8 -8 -8 -7 -7 -7 -7 -6 -7 -6 -6 -5 -5 -5 -4 -3 -3 -2 -3 -3 -3 -4 -4 -4 -5 -5 -6 -6 -7 -7 -7
-11 -11 -11 -10 -11 -11 -10 -9 -9 -8 -8 -8 -8 -8 -8 -8 -8 -8 -8 -9 -9 -8 -8 -7 -7 -7 -7 -7 -7 -7 -7 -6 -7 -6 -6 -6 -6 -4 -3 -3 -3 -3 -4 -4 -4 -5 -5 -6 -6 -6 -6 -7 -7 -7
-11 -10 -11 -11 -11 -11 -11 -11 -10 -9 -9 -9 -9 -9 -9 -9 -9 -9 -9 -9 -9 -9 -8 -8 -8 -7 -8 -8 -8 -8 -8 -8 -8 -9 -7 -8 -6 -5 -5 -5 -4 -4 -5 -5 -5 -5 -5 -5 -6 -6 -7 -7 -8 -8
-11 -11 -11 -10 -11 -11 -11 -11 -11 -10 -9 -9 -9 -9 -9 -9 -9 -9 -9 -9 -9 -9 -9 -8 -8 -8 -8 -8 -9 -9 -9 -9 -9 -9 -8 -8 -6 -5 -5 -5 -5 -5 -6 -6 -6 -7 -7 -7 -7 -7 -8 -8 -9 -9
-11 -11 -11 -11 -11 -11 -11 -11 -12 -11 -10 -10 -10 -10 -10 -10 -10 -10 -10 -10 -10 -10 -8 -8 -9 -8 -9 -9 -9 -9 -10 -10 -9 -10 -9 -7 -6 -6 -6 -6 -6 -6 -6 -7 -7 -7 -7 -8 -8 -8 -9 -9 -9 -10
-11 -11 -11 -11 -11 -11 -11 -11 -11 -11 -11 -11 -11 -11 -10 -10 -10 -10 -9 -9 -8 -8 -8 -9 -9 -9 -9 -9 -9 -10 -10 -10 -10 -10 -8 -6 -6 -6 -6 -7 -7 -7 -7 -7 -7 -8 -8 -9 -9 -9 -10 -10 -10 -10
-11 -11 -11 -11 -11 -11 -11 -12 -12 -11 -11 -10 -9 -9 -10 -10 -9 -9 -9 -9 -10 -10 -10 -10 -9 -10 -10 -10 -10 -10 -10 -10 -9 -8 -7 -7 -7 -7 -7 -7 -8 -8 -8 -8 -8 -9 -10 -10 -10 -10 -10 -10 -10 -10
-11 -11 -11 -11 -11 -11 -11 -11 -11 -11 -10 -9 -9 -9 -10 -10 -10 -9 -10 -10 -10 -10 -10 -10 -10 -10 -10 -10 -9 -9 -9 -8 -8 -8 -7 -7 -7 -7 -8 -8 -9 -9 -9 -9 -9 -9 -9 -10 -10 -10 -10 -10 -10 -10
-11 -11 -11 -11 -11 -10 -10 -11 -11 -11 -10 -10 -10 -10 -10 -10 -10 -10 -10 -10 -10 -10 -10 -11 -10 -10 -10 -10 -9 -9 -8 -8 -8 -7 -7 -8 -8 -8 -9 -9 -9 -9 -10 -10 -10 -10 -10 -10 -10 -10 -10 -10 -11 -11
-11 -11 -11 -11 -11 -10 -10 -10 -10 -10 -10 -10 -11 -11 -11 -10 -11 -11 -11 -11 -10 -11 -10 -9 -10 -10 -10 -9 -9 -8 -8 -8 -8 -8 -8 -9 -9 -9 -9 -9 -10 -10 -10 -10 -11 -10 -10 -10 -10 -10 -11 -11 -11 -11
-12 -11 -11 -11 -11 -11 -11 -11 -11 -11 -12 -11 -11 -11 -11 -11 -11 -11 -11 -11 -11 -11 -10 -10 -10 -10 -9 -9 -9 -9 -8 -8 -8 -9 -10 -10 -10 -10 -10 -10 -10 -11 -11 -11 -11 -11 -11 -11 -11 -11 -12 -12 -12 -12
-12 -11 -11 -11 -11 -11 -11 -11 -11 -12 -12 -12 -11 -11 -11 -11 -11 -11 -11 -11 -11 -11 -10 -10 -10 -10 -9 -10 -9 -9 -9 -9 -9 -9 -10 -10 -10 -10 -10 -11 -11 -11 -11 -11 -11 -11 -11 -11 -11 -12 -12 -12 -12 -12
-12 -11 -11 -11 -11 -11 -11 -12 -12 -12 -12 -12 -12 -11 -11 -11 -11 -11 -11 -11 -11 -11 -10 -10 -10 -10 -10 -10 -10 -10 -10 -10 -10 -10 -10 -10 -10 -11 -11 -11 -11 -11 -11 -11 -11 -11 -11 -12 -12 -12 -12 -12 -12 -12
-12 -12 -11 -11 -11 -11 -12 -12 -12 -12 -13 -12 -12 -12 -12 -12 -12 -12 -11 -11 -11 -11 -11 -11 -11 -11 -11 -11 -11 -11 -10 -10 -11 -11 -11 -11 -11 -11 -11 -11 -11 -11 -11 -11 -11 -12 -12 -12 -12 -12 -13 -13 -13 -13
-13 -12 -12 -11 -11 -11 -12 -12 -13 -13 -13 -13 -13 -13 -12 -12 -12 -12 -12 -11 -11 -11 -11 -11 -11 -11 -11 -11 -11 -11 -11 -11 -11 -11 -12 -12 -12 -12 -12 -12 -12 -12 -12 -12 -12 -12 -13 -13 -13 -13 -13 -14 -14 -15
-13 -13 -12 -11 -11 -11 -13 -13 -13 -13 -13 -13 -13 -13 -13 -12 -12 -12 -12 -12 -12 -11 -11 -11 -11 -11 -11 -11 -11 -11 -11 -11 -12 -12 -12 -12 -12 -12 -12 -12 -12 -13 -13 -13 -13 -13 -13 -13 -14 -14 -15 -15 -15 -16
-13 -13 -12 -12 -12 -12 -13 -12 -13 -13 -13 -13 -13 -13 -13 -12 -12 -12 -12 -12 -12 -12 -12 -12 -12 -12 -12 -12 -12 -12 -12 -12 -12 -12 -12 -13 -13 -13 -13 -13 -13 -13 -13 -13 -14 -14 -14 -15 -15 -15 -16 -16 -17 -17
-13 -13 -13 -12 -12 -12 -12 -13 -13 -12 -13 -13 -13 -13 -13 -12 -12 -12 -12 -12 -12 -12 -12 -12 -12 -12 -12 -12 -12 -12 -12 -13 -13 -13 -13 -13 -13 -13 -13 -13 -14 -14 -14 -14 -15 -15 -15 -16 -16 -17 -17 -18 -18 -18
-13 -13 -13 -12 -12 -11 -12 -12 -12 -12 -13 -13 -13 -13 -13 -13 -13 -13 -13 -13 -12 -12 -12 -12 -13 -12 -12 -12 -13 -13 -13 -13 -13 -14 -14 -14 -14 -14 -14 -14 -14 -15 -15 -15 -16 -16 -17 -17 -17 -18 -18 -19 -19 -19
-13 -12 -12 -12 -12 -12 -12 -13 -13 -13 -13 -12 -13 -13 -13 -13 -13 -13 -13 -13 -13 -12 -12 -12 -13 -13 -13 -14 -14 -14 -14 -14 -14 -14 -14 -14 -15 -15 -15 -15 -15 -16 -16 -16 -17 -17 -17 -18 -18 -19 -19 -19 -20 -20
-13 -13 -13 -13 -13 -13 -13 -13 -13 -13 -12 -12 -12 -13 -13 -12 -13 -13 -13 -13 -13 -13 -13 -13 -13 -13 -14 -14 -14 -14 -14 -14 -15 -15 -15 -15 -15 -15 -15 -16 -16 -16 -17 -17 -17 -18 -18 -18 -19 -19 -19 -20 -20 -21
-13 -13 -13 -14 -14 -14 -13 -13 -13 -13 -13 -13 -12 -12 -13 -13 -13 -13 -14 -14 -14 -13 -14 -14 -14 -14 -14 -14 -14 -14 -14 -15 -15 -15 -15 -15 -16 -16 -16 -16 -17 -17 -17 -18 -18 -18 -19 -19 -20 -20 -20 -21 -21 -22
-13 -13 -13 -13 -14 -14 -13 -13 -13 -13 -13 -13 -13 -13 -13 -13 -13 -13 -14 -14 -14 -14 -14 -14 -14 -14 -14 -14 -14 -15 -15 -15 -15 -15 -16 -16 -16 -16 -17 -17 -17 -18 -18 -18 -19 -19 -20 -20 -21 -21 -21 -22 -22 -22
-13 -13 -13 -14 -14 -14 -14 -14 -14 -14 -14 -14 -13 -13 -14 -14 -14 -14 -14 -14 -14 -14 -14 -14 -14 -15 -15 -15 -15 -15 -15 -16 -16 -16 -16 -16 -17 -17 -17 -18 -18 -18 -19 -19 -20 -20 -21 -21 -21 -22 -22 -22 -22 -22
-13 -13 -14 -14 -14 -14 -14 -14 -14 -14 -14 -14 -14 -14 -14 -14 -14 -14 -14 -14 -14 -14 -14 -14 -15 -15 -15 -15 -15 -16 -16 -16 -16 -16 -17 -17 -17 -18 -18 -18 -19 -19 -20 -20 -21 -21 -21 -22 -22 -22 -22 -22 -22 -22
Height
2771 2761 2755 2747 2743 2735 2728 2724 2725 2727 2732 2737 2745 2754 2766 2776 2786 2796 2806 2817 2825 2831 2835 2841 2842 2846 2852 2858 2862 2867 2885 2887 2890 2896 2903 2906 2905 2909 2911 2913 2915 2923 2931 2935 2941 2942 2941 2940 2944 2948 2950 2952 2956 2959
2769 2760 2754 2748 2744 2739 2734 2733 2733 2735 2738 2745 2752 2760 2769 2778 2787 2795 2804 2813 2822 2827 2831 2830 2834 2838 2847 2854 2860 2866 2871 2875 2879 2889 2894 2896 2899 2899 2902 2908 2912 2920 2922 2926 2932 2931 2933 2934 2937 2939 2944 2948 2951 2952
2768 2760 2753 2749 2746 2743 2739 2737 2738 2741 2745 2749 2753 2762 2771 2780 2788 2796 2803 2812 2819 2824 2829 2831 2831 2832 2836 2845 2854 2862 2864 2866 2872 2879 2887 2889 2891 2895 2898 2902 2907 2912 2917 2920 2926 2925 2927 2930 2933 2935 2939 2943 2946 2947
2767 2760 2753 2749 2748 2746 2744 2743 2743 2746 2750 2754 2759 2766 2772 2779 2787 2795 2803 2810 2817 2824 2827 2829 2829 2831 2833 2837 2844 2849 2855 2863 2870 2874 2878 2880 2886 2891 2895 2898 2902 2908 2911 2913 2915 2917 2921 2922 2925 2928 2931 2936 2939 2941
2768 2761 2755 2751 2751 2749 2748 2748 2749 2751 2755 2759 2763 2768 2774 2780 2788 2795 2802 2809 2816 2824 2823 2825 2827 2828 2829 2834 2837 2842 2851 2857 2861 2867 2871 2876 2880 2888 2890 2893 2893 2895 2899 2903 2903 2911 2915 2917 2918 2921 2926 2929 2933 2935
2769 2763 2757 2754 2753 2752 2752 2752 2753 2756 2758 2762 2766 2771 2776 2781 2785 2795 2799 2809 2813 2817 2822 2824 2825 2825 2828 2829 2835 2839 2844 2849 2854 2859 2864 2867 2871 2880 2882 2884 2886 2889 2894 2898 2900 2904 2907 2909 2909 2913 2919 2924 2928 2931
2771 2766 2760 2756 2756 2757 2757 2757 2757 2760 2764 2767 2771 2775 2781 2785 2791 2796 2802 2805 2811 2816 2820 2822 2822 2823 2825 2829 2833 2835 2839 2843 2850 2854 2856 2861 2867 2872 2874 2875 2878 2883 2886 2890 2892 2894 2897 2901 2904 2909 2914 2919 2923 2927
2773 2769 2765 2760 2758 2760 2760 2761 2762 2764 2766 2768 2773 2777 2783 2788 2794 2798 2801 2804 2810 2814 2817 2819 2819 2824 2826 2827 2831 2832 2834 2838 2840 2844 2850 2855 2861 2864 2865 2866 2870 2876 2881 2884 2886 2887 2892 2897 2900 2904 2909 2913 2918 2923
2774 2771 2768 2765 2762 2761 2762 2763 2765 2767 2769 2773 2773 2780 2785 2790 2793 2795 2800 2806 2809 2815 2813 2811 2814 2818 2822 2826 2829 2833 2834 2836 2839 2841 2845 2853 2853 2856 2858 2860 2865 2870 2874 2878 2880 2883 2887 2892 2896 2900 2905 2911 2917 2923
2774 2772 2770 2768 2766 2764 2763 2764 2766 2768 2771 2774 2778 2781 2784 2788 2792 2796 2800 2804 2806 2807 2808 2808 2809 2813 2820 2820 2825 2832 2830 2833 2836 2838 2845 2848 2846 2851 2854 2855 2860 2864 2869 2871 2873 2879 2884 2889 2893 2897 2903 2909 2915 2920
2773 2772 2771 2769 2768 2767 2766 2766 2767 2769 2771 2774 2777 2780 2783 2787 2793 2796 2799 2802 2802 2803 2802 2806 2811 2814 2818 2822 2822 2825 2827 2831 2837 2839 2844 2844 2844 2847 2850 2855 2859 2861 2866 2872 2876 2880 2884 2888 2891 2895 2900 2906 2910 2914
2771 2771 2770 2770 2769 2769 2769 2769 2769 2771 2771 2774 2776 2780 2785 2790 2793 2796 2796 2798 2797 2799 2799 2803 2808 2812 2815 2819 2824 2828 2830 2833 2834 2835 2838 2837 2839 2842 2847 2851 2856 2860 2867 2871 2874 2877 2882 2886 2889 2892 2897 2902 2905 2909
2769 2770 2770 2770 2770 2770 2770 2771 2772 2773 2774 2776 2779 2782 2786 2789 2790 2791 2791 2791 2791 2790 2794 2799 2804 2809 2814 2819 2821 2826 2829 2832 2833 2835 2830 2828 2835 2839 2843 2849 2856 2860 2864 2868 2871 2875 2879 2882 2886 2891 2895 2900 2902 2905
2768 2769 2770 2770 2771 2772 2772 2774 2776 2776 2778 2782 2784 2785 2786 2787 2787 2787 2788 2788 2789 2790 2793 2798 2802 2806 2809 2815 2820 2825 2828 2830 2828 2824 2825 2832 2835 2837 2842 2848 2855 2856 2861 2865 2868 2871 2875 2879 2884 2889 2893 2897 2899 2901
2766 2768 2769 2770 2771 2773 2774 2776 2778 2780 2782 2784 2784 2783 2784 2784 2785 2786 2786 2786 2787 2790 2794 2798 2803 2806 2810 2815 2820 2824 2827 2827 2826 2826 2827 2829 2833 2837 2842 2848 2852 2856 2860 2863 2866 2869 2873 2878 2883 2888 2892 2894 2896 2898
2765 2767 2769 2770 2772 2773 2775 2777 2780 2782 2783 2783 2782 2782 2783 2784 2785 2786 2785 2786 2788 2791 2795 2800 2803 2808 2810 2812 2816 2818 2820 2820 2821 2823 2826 2830 2834 2838 2842 2847 2851 2855 2859 2863 2867 2871 2874 2879 2882 2886 2888 2891 2893 2895
2763 2766 2768 2771 2772 2774 2775 2777 2780 2781 2782 2781 2781 2783 2784 2784 2784 2785 2787 2790 2792 2796 2800 2804 2807 2809 2811 2812 2814 2815 2818 2819 2821 2825 2830 2834 2837 2841 2844 2848 2852 2857 2861 2864 2868 2871 2874 2877 2879 2883 2886 2888 2890 2891
2762 2765 2768 2771 2772 2774 2775 2777 2779 2780 2780 2781 2782 2785 2786 2787 2787 2789 2792 2795 2798 2800 2803 2805 2806 2808 2810 2811 2813 2815 2818 2821 2825 2829 2832 2836 2840 2844 2847 2850 2854 2858 2862 2864 2868 2870 2873 2876 2879 2881 2884 2884 2884 2883
2760 2764 2768 2770 2772 2774 2775 2777 2778 2778 2780 2782 2785 2787 2789 2790 2792 2794 2796 2799 2801 2804 2806 2808 2809 2810 2811 2813 2816 2819 2821 2824 2826 2830 2834 2839 2843 2846 2848 2852 2856 2859 2862 2865 2868 2870 2872 2874 2875 2876 2876 2876 2875 2873
2759 2763 2767 2770 2772 2773 2774 2776 2777 2779 2782 2785 2786 2789 2791 2793 2795 2798 2800 2801 2804 2806 2807 2809 2810 2812 2814 2817 2819 2821 2824 2827 2830 2832 2836 2840 2843 2847 2850 2854 2857 2860 2862 2864 2866 2867 2868 2869 2869 2869 2867 2866 2864 2862
2758 2762 2766 2769 2771 2773 2773 2774 2777 2780 2783 2786 2788 2791 2793 2796 2798 2800 2802 2804 2806 2807 2809 2811 2813 2815 2818 2820 2822 2825 2828 2831 2834 2837 2839 2841 2845 2848 2851 2854 2856 2858 2860 2861 2861 2861 2862 2861 2860 2859 2858 2857 2855 2853
2757 2761 2765 2768 2770 2771 2772 2774 2776 2779 2783 2786 2790 2792 2795 2797 2799 2801 2804 2806 2807 2809 2812 2814 2816 2818 2821 2823 2825 2828 2831 2833 2835 2838 2840 2843 2846 2848 2850 2851 2853 2854 2854 2854 2854 2854 2854 2853 2852 2851 2849 2847 2845 2842
2757 2761 2765 2767 2770 2771 2774 2775 2777 2780 2784 2787 2791 2793 2796 2798 2800 2803 2804 2806 2808 2810 2812 2814 2816 2819 2822 2824 2826 2828 2831 2833 2836 2838 2840 2841 2843 2845 2846 2847 2847 2847 2847 2848 2848 2848 2847 2846 2844 2842 2839 2837 2834 2830
2758 2761 2764 2767 2768 2770 2773 2775 2778 2781 2784 2787 2791 2793 2796 2798 2800 2802 2804 2805 2807 2809 2811 2814 2816 2818 2821 2823 2826 2828 2830 2832 2834 2836 2837 2838 2839 2840 2841 2842 2842 2843 2843 2843 2842 2841 2839 2837 2834 2831 2827 2824 2821 2818
2760 2763 2765 2765 2766 2769 2771 2774 2778 2781 2783 2787 2791 2793 2795 2798 2800 2803 2804 2806 2807 2809 2811 2813 2815 2817 2819 2821 2823 2826 2828 2830 2831 2833 2834 2835 2836 2837 2838 2838 2838 2838 2837 2835 2834 2832 2830 2827 2824 2821 2818 2815 2812 2807
2757 2758 2761 2762 2765 2769 2770 2774 2777 2780 2784 2788 2791 2793 2796 2799 2801 2802 2804 2806 2808 2809 2811 2813 2815 2817 2818 2820 2822 2824 2826 2827 2828 2830 2831 2832 2833 2833 2833 2833 2832 2831 2829 2827 2825 2823 2821 2818 2815 2811 2807 2803 2798 2794
2754 2755 2757 2760 2763 2766 2770 2774 2777 2780 2784 2787 2790 2793 2796 2798 2800 2802 2803 2806 2808 2809 2811 2813 2815 2816 2817 2819 2821 2822 2824 2826 2827 2828 2829 2829 2829 2828 2828 2827 2826 2824 2822 2820 2818 2815 2812 2809 2805 2801 2798 2794 2789 2784
2752 2754 2757 2761 2763 2766 2769 2773 2777 2780 2782 2785 2789 2792 2795 2796 2799 2801 2804 2806 2808 2810 2812 2813 2815 2816 2818 2820 2821 2823 2824 2825 2825 2826 2825 2825 2824 2824 2823 2821 2820 2818 2816 2813 2810 2807 2804 2800 2796 2793 2788 2784 2780 2774
2754 2756 2760 2762 2765 2768 2771 2774 2775 2778 2781 2784 2786 2789 2792 2795 2798 2800 2803 2806 2809 2811 2813 2814 2816 2817 2818 2820 2820 2821 2822 2822 2822 2822 2821 2820 2820 2819 2817 2815 2813 2810 2808 2805 2802 2799 2796 2792 2788 2783 2778 2774 2769 2764
2755 2758 2760 2763 2766 2768 2771 2774 2777 2779 2781 2784 2787 2789 2792 2795 2798 2801 2804 2806 2808 2810 2812 2814 2815 2816 2816 2817 2818 2818 2818 2818 2818 2818 2817 2816 2814 2813 2811 2809 2807 2804 2802 2798 2795 2790 2786 2782 2777 2772 2768 2764 2760 2756
2756 2759 2762 2765 2767 2770 2773 2776 2778 2780 2782 2785 2788 2791 2793 2796 2799 2801 2804 2806 2808 2810 2811 2812 2813 2813 2813 2813 2813 2814 2814 2814 2813 2813 2812 2811 2809 2808 2806 2803 2800 2797 2794 2790 2786 2782 2778 2774 2770 2766 2762 2758 2754 2750
2757 2760 2763 2766 2769 2772 2775 2777 2779 2781 2783 2786 2788 2791 2794 2796 2798 2801 2803 2805 2806 2807 2808 2809 2809 2809 2809 2810 2810 2810 2809 2809 2808 2808 2807 2806 2804 2802 2799 2795 2792 2789 2786 2783 2779 2775 2771 2767 2763 2759 2756 2752 2748 2743
2757 2761 2764 2766 2769 2771 2774 2777 2779 2782 2784 2786 2788 2790 2792 2794 2797 2799 2801 2802 2804 2804 2805 2805 2805 2806 2806 2806 2805 2805 2805 2805 2804 2803 2801 2800 2797 2795 2792 2789 2786 2783 2780 2776 2773 2769 2765 2762 2758 2754 2750 2746 2742 2738
Wind_Speed
31 26 21 21 18 21 12 7 15 21 24 34 40 52 45 49 47 46 46 44 45 44 24 31 36 34 43 57 43 46 51 47 37 33 30 18 16 21 16 19 24 31 25 18 19 12 15 17 21 32 32 28 21 21
30 26 19 17 14 16 7 5 18 19 22 35 39 45 44 43 43 42 43 41 41 45 25 35 21 30 43 45 53 45 49 50 44 33 24 20 11 22 24 19 22 20 23 19 18 15 17 16 21 23 22 24 24 21
29 26 18 12 4 8 8 9 15 20 23 28 37 46 43 45 44 44 40 37 39 40 39 29 30 24 25 44 50 50 50 38 49 40 35 18 9 18 19 23 18 24 21 27 22 25 26 26 24 24 24 20 18 17
27 25 16 11 1 1 5 10 12 18 21 21 26 44 47 48 47 45 43 34 34 32 34 24 18 26 23 26 37 43 44 47 50 41 37 25 21 23 23 20 25 28 25 31 35 36 32 31 28 26 26 23 22 18
24 23 14 9 3 7 4 8 9 16 19 22 22 25 36 45 48 51 39 34 30 28 8 23 23 21 22 22 27 36 38 42 38 42 37 36 39 32 28 26 32 35 36 35 36 31 27 27 26 27 26 22 19 16
20 21 16 5 4 9 13 11 17 18 18 20 22 21 26 25 35 37 42 31 27 24 20 20 11 13 21 11 21 27 38 38 41 43 42 41 34 30 23 36 39 35 34 33 33 26 23 20 18 23 23 21 17 16
15 18 21 11 3 8 11 12 17 19 20 21 22 24 23 24 24 29 27 29 30 27 23 17 13 14 22 23 18 27 32 43 46 48 45 41 40 38 36 37 35 30 22 24 24 26 27 24 21 21 21 20 18 15
10 12 15 16 8 5 11 12 13 17 19 17 26 26 21 20 22 23 25 24 21 23 19 7 9 13 13 16 15 20 28 32 34 33 36 36 33 34 33 36 36 31 22 19 22 22 20 19 20 20 22 21 21 21
6 5 9 13 10 6 5 9 13 15 16 19 26 24 21 22 23 25 23 21 14 12 8 10 12 15 18 18 22 21 21 21 15 22 25 22 30 20 23 27 27 22 23 22 19 20 19 18 20 21 20 23 21 21
3 2 4 8 13 12 9 9 10 15 18 18 20 19 16 20 19 15 8 10 11 20 21 24 19 15 17 23 24 20 12 14 8 16 19 20 27 33 24 23 20 23 20 20 23 23 21 20 18 18 20 19 18 18
1 1 6 6 10 13 15 9 9 14 16 19 21 16 17 20 17 13 10 14 13 10 19 27 25 24 26 27 22 16 6 8 9 10 15 9 22 27 24 18 16 17 17 17 13 8 7 10 13 18 19 18 20 21
3 4 5 8 9 14 17 12 7 11 20 25 27 24 19 18 8 6 11 9 9 10 13 24 27 28 25 28 15 9 6 9 6 16 13 6 15 21 22 20 17 19 20 19 18 15 13 12 12 13 17 21 19 16
6 7 7 9 10 12 15 11 9 18 19 24 27 17 9 4 5 6 8 8 10 10 17 26 31 30 25 18 9 7 7 6 15 9 7 7 12 18 23 22 22 20 20 21 20 18 17 16 16 17 19 18 17 16
10 9 9 10 12 12 13 12 11 15 19 9 4 3 4 4 6 8 11 10 14 13 17 28 34 22 19 14 7 5 7 10 4 3 4 13 16 21 21 22 25 25 23 21 19 19 18 19 21 20 17 16 17 17
13 12 11 11 13 13 13 12 10 11 3 2 3 4 8 8 8 7 6 9 11 14 26 35 26 19 17 10 7 7 9 7 8 8 13 23 23 25 28 26 22 20 19 18 15 16 18 19 19 18 16 16 16 14
16 15 13 13 13 14 15 16 19 12 5 4 3 5 11 9 9 9 4 6 17 32 36 29 10 6 5 9 7 6 7 7 7 11 19 20 19 20 22 21 18 15 14 14 14 14 15 17 16 15 15 16 15 15
18 16 14 12 12 12 13 15 22 16 4 4 5 11 11 9 10 13 12 17 29 25 17 10 4 3 9 6 7 8 6 6 14 18 19 18 18 19 19 18 16 13 11 11 14 16 15 15 15 15 15 17 19 21
17 16 13 12 11 11 13 14 12 8 7 9 14 13 11 12 17 19 22 21 24 16 10 7 6 7 4 5 9 13 15 20 19 17 18 17 15 14 12 15 16 13 10 10 11 12 13 14 15 17 19 22 24 27
17 15 14 12 11 11 10 11 9 7 10 12 16 15 14 14 16 17 19 17 14 8 9 8 4 7 7 11 18 19 17 16 19 20 19 18 15 13 12 15 16 14 12 11 11 11 13 16 18 21 23 27 30 33
18 16 15 14 12 10 6 8 11 10 15 17 17 19 18 13 16 19 16 14 12 9 6 3 9 12 15 15 13 14 15 15 17 19 18 16 15 13 13 14 15 15 14 13 14 16 19 21 23 26 29 31 31 33
19 18 16 13 11 8 5 11 11 15 19 16 16 15 16 14 12 11 12 9 9 7 6 11 13 13 14 16 16 16 16 14 12 8 11 14 15 14 14 13 14 14 15 18 21 22 24 27 28 28 29 30 32 35
19 19 17 14 10 6 5 10 13 20 18 20 18 15 14 13 12 11 9 8 8 7 9 10 10 10 11 13 15 14 12 12 11 11 11 10 9 11 13 15 16 18 21 23 23 23 24 25 26 28 31 34 36 37
19 19 17 14 7 4 10 14 19 17 11 20 18 14 12 12 11 11 8 9 8 9 10 10 10 9 10 10 11 12 12 12 12 12 13 14 15 16 17 19 20 20 20 19 20 21 23 26 28 30 32 33 33 34
20 20 14 11 7 6 17 14 17 16 13 18 16 11 13 10 11 9 7 6 10 11 11 11 11 11 11 11 11 11 11 12 12 12 12 13 15 16 16 15 15 15 16 18 19 21 23 26 28 30 31 32 34 37
14 13 7 9 9 14 14 18 20 14 22 19 18 10 13 12 11 7 9 9 9 9 10 9 10 10 9 10 11 10 10 10 10 10 10 10 10 11 11 12 13 15 17 19 20 22 26 28 29 30 32 34 37 39
10 7 10 13 15 15 14 18 17 16 25 19 12 11 15 10 7 5 10 9 8 9 10 8 7 7 8 9 9 8 7 7 7 8 9 8 8 9 11 13 15 17 19 22 24 27 28 29 31 34 36 38 38 39
7 6 13 17 16 15 16 17 16 20 21 10 17 16 11 6 5 9 12 11 10 11 12 10 8 7 6 6 8 8 7 7 7 6 7 9 10 11 13 15 18 20 22 25 28 28 30 33 35 37 36 36 37 38
7 12 15 17 16 16 17 22 19 19 15 12 17 12 10 8 9 15 13 12 13 12 11 10 10 10 10 9 8 6 6 6 8 9 10 13 15 17 19 20 21 24 26 28 28 31 33 34 34 34 35 35 36 36
17 17 13 15 16 16 16 14 10 14 13 16 18 16 12 12 18 18 17 15 12 9 7 5 5 5 6 7 7 8 10 12 13 14 17 19 19 21 22 22 25 26 27 29 32 32 32 32 32 33 35 35 35 34
18 12 12 17 15 12 15 12 12 12 15 13 12 12 13 16 17 16 14 14 11 8 5 2 2 3 5 7 8 10 11 12 14 17 19 20 20 20 22 24 25 27 29 29 29 29 31 32 34 34 34 34 32 30
17 14 12 15 14 15 15 14 14 13 13 13 13 11 15 16 15 16 14 12 9 8 7 6 7 7 9 10 12 12 13 14 16 17 15 16 20 21 22 25 27 27 27 27 28 29 31 31 31 31 30 28 27 28
18 14 13 17 18 16 16 14 12 11 10 9 10 11 11 10 11 11 11 11 10 10 11 10 10 11 11 11 12 14 13 12 12 13 16 18 20 23 25 25 25 25 26 27 28 29 29 29 27 25 25 26 27 27
18 15 12 11 17 20 18 16 13 12 12 12 12 11 10 11 13 14 14 13 11 12 11 9 9 11 12 13 12 11 10 11 12 14 17 21 23 23 23 24 24 25 26 27 26 26 24 22 22 23 24 25 25 24
Wind_Direction
347 340 340 340 345 11 19 123 150 157 162 164 171 188 184 183 188 192 197 202 207 210 220 218 221 221 213 208 199 204 204 207 198 213 213 205 214 202 192 199 199 204 191 198 212 219 251 236 213 211 241 253 253 235
350 347 343 348 353 12 50 119 158 154 168 175 175 181 184 183 190 195 200 200 205 213 219 227 199 194 208 207 216 210 209 208 206 208 215 206 191 185 193 186 199 201 211 202 208 226 245 228 229 244 245 250 255 248
353 352 348 354 8 6 61 125 165 169 172 179 182 186 184 188 194 198 203 204 207 217 229 239 241 217 185 198 220 220 216 203 205 214 210 208 194 197 200 210 214 218 221 231 232 230 239 245 249 257 263 258 239 230
357 358 0 6 317 95 71 109 141 168 166 167 168 183 191 198 191 200 202 200 213 219 228 243 260 258 262 214 199 212 221 226 227 223 212 225 228 241 233 235 235 245 244 244 244 251 254 250 263 259 250 242 235 231
2 6 13 29 86 147 166 110 131 157 165 170 164 166 177 196 204 203 193 200 211 216 226 242 255 249 251 253 227 203 215 224 226 237 231 230 238 235 241 240 236 244 249 242 251 265 275 268 266 262 254 245 247 238
5 16 22 48 58 121 111 109 153 156 159 167 176 180 187 189 193 200 199 209 210 215 230 259 283 237 228 238 235 213 207 212 224 222 233 224 223 231 234 248 257 255 258 264 262 260 260 259 253 253 249 241 235 211
10 22 27 43 123 141 139 133 129 155 159 155 156 159 159 167 179 193 204 218 223 226 243 253 264 249 240 254 246 229 215 216 224 225 226 238 237 235 242 245 255 259 264 249 242 241 243 245 239 231 228 224 220 204
13 31 43 30 46 143 151 152 162 154 144 147 162 171 175 185 195 211 210 215 224 225 234 224 193 213 217 205 222 205 206 207 213 215 221 227 238 234 242 252 254 255 252 238 229 234 238 241 228 219 225 220 206 209
19 39 55 67 62 69 154 163 170 177 173 165 159 180 182 192 201 222 228 216 209 204 231 236 204 192 208 213 207 201 199 191 199 205 214 218 217 221 236 242 244 245 246 241 223 224 222 210 212 207 208 208 214 219
6 83 94 79 94 103 116 145 179 173 176 165 162 169 174 191 207 216 234 213 217 229 249 234 234 209 208 210 221 216 198 211 190 205 211 208 221 223 232 236 239 240 226 213 204 199 197 200 204 207 212 216 223 233
307 187 138 122 96 101 98 124 163 187 183 179 182 192 194 190 196 199 179 189 199 208 222 221 223 222 208 198 195 200 170 177 183 191 196 205 225 221 225 228 214 205 199 203 203 200 209 222 213 206 210 218 222 226
216 182 158 140 138 114 88 78 93 190 191 196 192 183 176 168 167 178 177 189 197 209 206 201 207 209 204 199 181 171 164 172 187 177 185 225 222 210 214 208 199 189 187 193 201 206 202 202 206 213 217 215 219 230
205 179 167 150 145 131 104 89 123 144 163 143 145 152 162 148 171 189 197 200 199 198 197 197 191 188 174 179 154 155 160 177 145 178 196 219 195 195 192 192 197 194 199 203 207 211 214 203 194 201 209 216 230 226
193 181 169 159 154 146 131 120 137 123 98 77 96 133 177 179 203 217 221 227 221 220 204 192 191 171 169 162 142 105 136 151 165 172 211 182 182 188 189 189 199 205 213 218 218 218 208 194 196 201 214 219 218 220
188 180 169 160 163 163 156 152 155 148 173 289 203 202 191 193 196 195 229 224 220 202 186 178 172 158 152 124 136 140 176 194 209 206 189 177 170 176 183 189 192 195 196 192 191 188 189 195 205 213 216 218 218 225
187 181 172 160 150 154 162 171 177 182 215 214 226 177 149 152 170 192 178 177 172 175 169 172 127 139 111 128 152 177 184 199 191 180 161 165 167 171 180 181 181 182 180 180 189 194 200 207 214 221 224 222 225 233
187 183 177 169 162 161 164 175 188 209 237 207 170 150 150 164 159 157 146 166 164 159 141 108 115 134 135 157 158 170 180 159 148 152 154 156 149 143 156 175 184 186 186 187 188 191 192 196 203 209 217 229 241 252
185 182 177 176 171 166 169 171 180 193 196 161 142 142 146 138 132 140 152 165 167 130 131 105 119 124 121 151 156 151 143 140 143 148 146 144 145 145 142 155 163 177 178 173 174 181 187 198 214 229 240 251 262 270
181 181 179 179 167 161 164 183 195 157 154 149 145 150 145 131 143 160 170 177 179 156 157 122 125 147 144 148 143 141 142 146 147 146 149 155 168 182 166 164 178 185 188 193 201 214 229 240 249 255 262 267 272 277
176 179 183 181 172 178 171 155 165 139 149 148 148 150 142 131 144 140 146 142 153 171 172 147 127 124 126 124 130 141 143 148 152 154 160 161 162 155 155 171 185 194 202 214 231 246 253 258 263 268 272 274 275 277
173 176 181 178 179 192 162 149 152 149 149 156 158 156 156 156 149 161 162 158 160 158 144 152 148 142 133 130 128 135 135 141 145 136 155 165 171 174 178 189 200 214 235 253 262 265 266 268 269 270 271 273 276 281
174 174 178 177 173 159 147 154 159 160 162 166 166 170 169 167 174 182 187 182 179 178 165 156 154 149 144 139 137 140 146 147 151 157 166 174 188 200 212 226 234 246 259 263 263 264 267 270 272 275 279 282 284 287
172 173 173 171 163 141 142 153 153 158 152 169 169 170 178 180 185 185 187 195 194 184 184 186 188 184 172 166 165 166 168 172 180 187 195 205 216 226 236 245 252 257 259 262 269 273 275 278 282 284 286 289 292 296
170 170 168 173 164 158 154 162 166 159 158 170 172 173 181 186 185 183 187 186 194 206 204 203 204 203 204 206 208 210 211 213 218 224 230 238 242 244 249 253 258 264 268 272 275 280 287 293 296 297 299 301 302 301
163 172 179 176 167 162 163 166 171 167 169 171 167 164 172 172 171 169 176 178 173 181 190 191 194 201 206 212 220 225 232 234 232 233 233 232 237 245 252 259 265 271 278 283 288 294 300 303 303 302 302 300 300 301
167 168 176 177 167 170 169 173 177 177 175 167 171 167 169 161 158 162 178 181 178 184 188 190 190 194 204 210 215 217 217 216 215 210 217 227 247 266 275 278 280 287 293 298 302 305 306 304 304 305 306 307 306 306
164 166 172 169 167 174 165 174 173 172 170 179 182 168 157 164 163 164 163 161 165 175 178 181 190 200 187 183 185 180 180 187 200 226 253 270 282 294 300 297 295 298 300 302 304 306 306 307 307 306 305 305 305 305
156 154 160 163 166 170 168 161 165 174 177 175 171 170 168 174 157 161 163 152 141 140 138 143 147 148 151 162 181 205 231 253 268 276 292 294 294 299 303 300 298 301 304 305 306 306 306 305 304 304 304 305 307 307
137 130 144 159 159 159 168 166 165 171 168 169 170 172 172 172 163 161 161 164 164 160 151 157 166 179 197 219 244 261 270 280 288 296 297 299 298 299 298 298 300 303 305 307 306 304 303 304 306 308 309 310 309 310
149 142 154 165 166 162 167 152 143 153 163 172 179 173 164 159 161 171 174 176 176 173 174 190 249 274 267 268 273 276 279 281 282 281 283 288 293 297 300 302 302 303 303 304 306 308 310 312 313 313 314 313 313 312
159 142 129 144 145 143 148 150 139 144 152 154 146 151 156 162 174 186 193 198 213 229 251 279 286 278 272 274 277 280 280 279 277 280 280 288 298 300 300 301 304 307 311 313 314 314 313 314 314 313 312 312 314 315
172 173 158 158 157 152 151 158 159 167 174 180 182 188 189 191 184 196 206 211 226 251 265 269 272 273 274 273 281 285 285 282 281 284 292 298 301 305 308 312 315 317 316 315 316 316 316 316 316 317 319 320 320 320
176 178 183 168 169 174 180 181 178 173 186 192 199 207 207 205 208 218 226 237 245 253 254 250 256 267 277 285 287 285 285 289 295 300 305 309 312 314 316 318 318 318 318 319 320 321 323 325 326 326 325 325 326 327